Powrót do katalogu

STARLINK-35518

AktywnyŁącznośćVLEO
NORAD 66198·PAYLOAD·🇺🇸 United States

Wystrzelony Oct 26, 2025 z Cape Canaveral Space Force Station

Loading…

Następne Przeloty (najbliższe 24 godziny)

TLE

ŚwieżeSource: CelesTrak SupGP

Epoka: Sep 15, 2026, 02:37 UTC

1 66198C 25243X   26258.10951389 -.00010335  00000+0 -30536-3 0  2586
2 66198  53.1580  84.5886 0001073  91.7309  11.7725 15.34393790    11

Śledź STARLINK-35518 w czasie rzeczywistym z AllMySat

Download on the App Store